Weather History for KEOK - October, 2012

Change the Weather History Date:

Tuesday, October 16, 2012

  Actual Average Record
Temperature  
Mean Temperature 68 °F -  
Max Temperature 84 °F 66 °F 86 °F (1953)
Min Temperature 53 °F 46 °F 31 °F (1976)
Cooling Degree Days 4    
Growing Degree Days 18 (Base 50)    
Moisture  
Dew Point 46 °F    
Average Humidity 47    
Maximum Humidity 67    
Minimum Humidity 21    
Precipitation  
Precipitation 0.00 in - - ()
Sea Level Pressure  
Sea Level Pressure 29.66 in    
Wind  
Wind Speed 9 mph (South)    
Max Wind Speed 26 mph    
Max Gust Speed 39 mph    
Visibility 7 miles    
Events      
Averages and records for this station are not official NWS values.
T = Trace of Precipitation, MM = Missing Value Source: NWS Daily Summary

Daily Weather History Graph

Daily Weather History Graph

Search for Another Location

Airport or City:

Trip Planner

Search our weather history database for the weather conditions in past years. The results will help you decide how hot, cold, wet, or windy it might be!

Date:

Astronomy

Oct. 16, 2012 Rise Set
Actual Time 7:18 AM CDT 6:23 PM CDT
Civil Twilight 6:50 AM CDT 6:50 PM CDT
Nautical Twilight 6:19 AM CDT 7:22 PM CDT
Astronomical Twilight 5:47 AM CDT 7:54 PM CDT
Moon 8:41 AM CDT (10/16) 7:07 PM CDT (10/16)
Length of Visible Light 12h 00m
Length of Day
11h 05m
New Moon, 2% of the Moon is Illuminated
Oct 16
New Moon
Oct 21
First Quarter
Oct 29
Full
Nov 6
Last Quarter
Nov 13
New

Hourly Weather History & Observations

Time (CDT) Temp. Dew Point Humidity Pressure Visibility Wind Dir Wind Speed Gust Speed Precip Events Conditions
12:15 AM 55.4 °F 44.6 °F 67% 29.90 in 7.0 mi SSE 4.6 mph - N/A   Clear
12:35 AM 55.4 °F 42.8 °F 63% 29.90 in 5.0 mi SE 4.6 mph - N/A   Haze
12:55 AM 55.4 °F 42.8 °F 63% 29.89 in 0.2 mi ESE 5.8 mph - N/A   Haze
1:15 AM 55.4 °F 44.6 °F 67% 29.89 in 0.8 mi SE 5.8 mph - N/A   Haze
1:35 AM 55.4 °F 42.8 °F 63% 29.89 in 2.0 mi SE 4.6 mph - N/A   Haze
1:55 AM 55.4 °F 44.6 °F 67% 29.89 in 10.0 mi SSE 4.6 mph - N/A   Clear
2:15 AM 53.6 °F 42.8 °F 67% 29.89 in 7.0 mi SSE 4.6 mph - N/A   Clear
2:35 AM 53.6 °F 42.8 °F 67% 29.87 in 10.0 mi SE 5.8 mph - N/A   Clear
2:55 AM 55.4 °F 42.8 °F 63% 29.86 in 5.0 mi SE 6.9 mph - N/A   Haze
3:15 AM 55.4 °F 42.8 °F 63% 29.85 in 3.0 mi SSE 6.9 mph - N/A   Haze
3:35 AM 55.4 °F 42.8 °F 63% 29.85 in 5.0 mi SE 6.9 mph - N/A   Haze
3:55 AM 55.4 °F 42.8 °F 63% 29.83 in 1.5 mi SE 5.8 mph - N/A   Haze
4:15 AM 55.4 °F 42.8 °F 63% 29.81 in 1.0 mi SE 6.9 mph - N/A   Haze
4:35 AM 55.4 °F 44.6 °F 67% 29.81 in 2.5 mi SE 8.1 mph - N/A   Haze
4:55 AM 57.2 °F 44.6 °F 63% 29.80 in 4.0 mi SSE 8.1 mph - N/A   Haze
5:15 AM 55.4 °F 44.6 °F 67% 29.79 in 2.0 mi SE 6.9 mph - N/A   Haze
5:35 AM 55.4 °F 44.6 °F 67% 29.78 in 3.0 mi SE 5.8 mph - N/A   Haze
5:55 AM 55.4 °F 44.6 °F 67% 29.78 in 2.0 mi SE 8.1 mph - N/A   Haze
6:15 AM 55.4 °F 44.6 °F 67% 29.77 in 2.0 mi SE 6.9 mph - N/A   Haze
6:35 AM 55.4 °F 44.6 °F 67% 29.77 in 4.0 mi SE 8.1 mph - N/A   Haze
7:15 AM 55.4 °F 44.6 °F 67% 29.76 in 5.0 mi SSE 8.1 mph - N/A   Haze
7:35 AM 55.4 °F 44.6 °F 67% 29.75 in 1.5 mi SE 8.1 mph - N/A   Haze
7:55 AM 55.4 °F 44.6 °F 67% 29.74 in 2.0 mi SE 6.9 mph - N/A   Haze
8:15 AM 57.2 °F 46.4 °F 67% 29.74 in 3.0 mi SSE 9.2 mph - N/A   Haze
8:35 AM 59.0 °F 46.4 °F 63% 29.74 in 3.0 mi SSE 6.9 mph - N/A   Haze
8:55 AM 60.8 °F 48.2 °F 63% 29.73 in 4.0 mi SSE 6.9 mph - N/A   Haze
9:15 AM 62.6 °F 48.2 °F 59% 29.72 in 4.0 mi SSE 6.9 mph - N/A   Haze
9:35 AM 64.4 °F 48.2 °F 56% 29.71 in 5.0 mi South 6.9 mph - N/A   Haze
9:55 AM 68.0 °F 50.0 °F 52% 29.71 in 7.0 mi South 13.8 mph - N/A   Clear
10:15 AM 68.0 °F 50.0 °F 52% 29.69 in 10.0 mi South 13.8 mph 19.6 mph N/A   Clear
10:35 AM 69.8 °F 51.8 °F 53% 29.68 in 7.0 mi SSW 15.0 mph 19.6 mph N/A   Clear
10:55 AM 69.8 °F 51.8 °F 53% 29.67 in 10.0 mi South 11.5 mph 20.7 mph N/A   Clear
11:15 AM 69.8 °F 51.8 °F 53% 29.66 in 10.0 mi South 10.4 mph - N/A   Clear
11:35 AM 71.6 °F 51.8 °F 50% 29.65 in 7.0 mi South 12.7 mph 17.3 mph N/A   Clear
11:55 AM 73.4 °F 51.8 °F 47% 29.64 in 5.0 mi South 12.7 mph 18.4 mph N/A   Haze
12:15 PM 75.2 °F 51.8 °F 44% 29.63 in 10.0 mi SSW 13.8 mph 18.4 mph N/A   Clear
12:35 PM 78.8 °F 51.8 °F 39% 29.62 in 7.0 mi South 15.0 mph 20.7 mph N/A   Clear
12:55 PM 80.6 °F 51.8 °F 37% 29.60 in 7.0 mi SSW 13.8 mph 23.0 mph N/A   Clear
1:15 PM 80.6 °F 48.2 °F 32% 29.60 in 10.0 mi South 13.8 mph 19.6 mph N/A   Clear
1:35 PM 82.4 °F 48.2 °F 30% 29.58 in 10.0 mi SSW 15.0 mph 26.5 mph N/A   Clear
1:55 PM 82.4 °F 46.4 °F 28% 29.57 in 10.0 mi SW 17.3 mph 26.5 mph N/A   Clear
2:15 PM 82.4 °F 46.4 °F 28% 29.56 in 7.0 mi SSW 16.1 mph 27.6 mph N/A   Clear
2:35 PM 84.2 °F 46.4 °F 27% 29.55 in 10.0 mi SSW 26.5 mph 39.1 mph N/A   Clear
2:55 PM 84.2 °F 44.6 °F 25% 29.54 in 10.0 mi SW 26.5 mph 32.2 mph N/A   Clear
3:15 PM 82.4 °F 44.6 °F 26% 29.53 in 10.0 mi SW 21.9 mph 28.8 mph N/A   Clear
3:35 PM 82.4 °F 44.6 °F 26% 29.53 in 10.0 mi SW 23.0 mph 31.1 mph N/A   Clear
3:55 PM 82.4 °F 44.6 °F 26% 29.52 in 10.0 mi SW 19.6 mph 25.3 mph N/A   Clear
4:15 PM 82.4 °F 44.6 °F 26% 29.52 in 10.0 mi SSW 21.9 mph 28.8 mph N/A   Clear
4:35 PM 82.4 °F 42.8 °F 25% 29.50 in 10.0 mi SSW 23.0 mph 29.9 mph N/A   Clear
4:55 PM 84.2 °F 42.8 °F 23% 29.51 in 10.0 mi SSW 18.4 mph 33.4 mph N/A   Clear
5:15 PM 82.4 °F 42.8 °F 25% 29.50 in 10.0 mi SSW 13.8 mph 25.3 mph N/A   Clear
5:35 PM 82.4 °F 39.2 °F 21% 29.50 in 10.0 mi SSW 15.0 mph 28.8 mph N/A   Clear
5:55 PM 80.6 °F 42.8 °F 26% 29.49 in 7.0 mi South 11.5 mph - N/A   Clear
6:15 PM 80.6 °F 42.8 °F 26% 29.50 in 10.0 mi SSW 11.5 mph - N/A   Clear
6:35 PM 78.8 °F 42.8 °F 28% 29.51 in 10.0 mi SSW 9.2 mph - N/A   Clear
6:55 PM 75.2 °F 44.6 °F 34% 29.52 in 10.0 mi SW 5.8 mph - N/A   Clear
7:15 PM 73.4 °F 46.4 °F 38% 29.52 in 10.0 mi SSW 6.9 mph - N/A   Clear
7:35 PM 73.4 °F 46.4 °F 38% 29.52 in 10.0 mi SSW 8.1 mph - N/A   Clear
7:55 PM 73.4 °F 44.6 °F 36% 29.52 in 10.0 mi South 8.1 mph - N/A   Clear
8:15 PM 73.4 °F 44.6 °F 36% 29.52 in 10.0 mi SSW 8.1 mph - N/A   Clear
8:35 PM 73.4 °F 44.6 °F 36% 29.53 in 10.0 mi SSW 9.2 mph - N/A   Clear
8:55 PM 73.4 °F 44.6 °F 36% 29.53 in 10.0 mi SSW 8.1 mph - N/A   Clear
9:15 PM 71.6 °F 46.4 °F 41% 29.53 in 10.0 mi South 9.2 mph - N/A   Clear
9:35 PM 71.6 °F 46.4 °F 41% 29.53 in 10.0 mi South 10.4 mph - N/A   Clear
9:55 PM 71.6 °F 46.4 °F 41% 29.53 in 10.0 mi SSW 11.5 mph - N/A   Clear
10:15 PM 71.6 °F 44.6 °F 38% 29.54 in 10.0 mi SSW 10.4 mph - N/A   Mostly Cloudy
10:35 PM 71.6 °F 44.6 °F 38% 29.54 in 10.0 mi SSW 10.4 mph - N/A   Overcast
10:55 PM 71.6 °F 44.6 °F 38% 29.54 in 10.0 mi SSW 9.2 mph - N/A   Overcast
11:15 PM 69.8 °F 44.6 °F 40% 29.54 in 10.0 mi SSW 11.5 mph - N/A   Mostly Cloudy
11:35 PM 69.8 °F 46.4 °F 43% 29.55 in 10.0 mi SSW 10.4 mph - N/A   Scattered Clouds
11:55 PM 69.8 °F 46.4 °F 43% 29.55 in 10.0 mi SSW 10.4 mph - N/A   Mostly Cloudy